Simultaneous Nadir Overpasses (SNOs) Predictions

Prediction of SNOs between LANDSAT-8 and NPP Satellite Orbit:

Table of predicted SNOs for the next 14.0 days since TLE Epoch: 2/2/2019
Index Date (LANDSAT-8) Time (LANDSAT-8) Lat,Lon (LANDSAT-8) SZA (LANDSAT-8 ) Date (NPP) Time (NPP) Lat,Lon (NPP) SZA (NPP ) Distance(km) Time Diff (sec)
1 02/02/2019 14:41:40 70.13, -43.98 86.94 02/02/2019 14:41:04 70.13, -44.02 86.94 1.78 36
2 02/02/2019 15:31:10 -70.03, 123.50 93.17 02/02/2019 15:31:46 -70.04, 123.43 93.16 2.89 36
3 02/05/2019 06:08:33 -70.67, -94.96 93.33 02/05/2019 06:07:23 -70.76, -96.56 93.17 59.52 70
4 02/05/2019 06:58:09 70.07, 71.80 86.09 02/05/2019 06:57:56 70.07, 71.84 86.09 1.58 13
5 02/05/2019 07:47:39 -69.97,-120.71 94.02 02/05/2019 07:48:38 -69.98,-120.70 94.02 1.42 59
6 02/07/2019 22:25:11 -70.18, 20.19 94.62 02/07/2019 22:24:06 -70.17, 20.14 94.61 1.99 65
7 02/07/2019 23:14:38 70.07,-172.32 85.27 02/07/2019 23:14:50 70.06,-172.37 85.26 2.12 12
8 02/08/2019 00:04:14 -69.64, -5.29 95.15 02/08/2019 00:05:25 -69.60, -4.37 95.24 35.70 71
9 02/10/2019 14:41:41 -70.13, 136.00 95.52 02/10/2019 14:40:59 -70.12, 136.01 95.53 1.56 42
10 02/10/2019 15:31:08 70.02, -56.52 84.36 02/10/2019 15:31:43 70.00, -56.51 84.35 1.39 35
11 02/13/2019 06:08:31 70.73, 85.13 84.18 02/13/2019 06:07:22 70.78, 83.40 84.31 63.71 69
12 02/13/2019 06:58:11 -70.09,-108.18 96.45 02/13/2019 06:57:53 -70.11,-108.21 96.42 2.95 18
13 02/13/2019 07:47:38 69.97, 59.30 83.44 02/13/2019 07:48:36 69.95, 59.35 83.40 3.20 58
14 02/15/2019 22:25:10 70.15,-159.85 82.71 02/15/2019 22:24:03 70.15,-159.82 82.73 1.42 67
15 02/15/2019 23:14:40 -70.05, 7.64 97.39 02/15/2019 23:14:45 -70.06, 7.65 97.39 0.62 5
16 02/16/2019 00:04:13 69.60, 174.67 82.18 02/16/2019 00:05:23 69.63, 175.59 82.15 36.09 70




NCC Satellite Simultaneous Nadir Overpasses (SNOs) Prediction Service
